Погода в Фергане

Погода в Фергане : погода сейчас, прогноз погоды и архив. Всё, что Вы хотите узнать о погоде в Фергане!

Поиск расширенной информации на нашем сайте:

Полезная информация:

Другие новости

Новости СМИ2

Главная страница сайта

Новости сайта

03.07.2017

Напоминаем, что на нашем специализированном сайте Метеоцентр.Азия вы можете получить высокодетализированные автоматические прогнозы погоды по пунктам России, СНГ и мира в авиационном формате (включающие направление и скорость ветра, видимость, явления погоды, количество и форму облачности, нижнюю и верхнюю границу облачности).

Рекомендуем:

Погода в Фергане - сегодня

Время (UTC), дата Ветер
(°,м/с) 
Видим.   Явления Облачность Т
(°С)
Тd
(°С)
f(%) Тe
(°С)
Pmin
(гПа)
dP
(гПа)
Po
(мм)
O2
(г/м3)
Тmin Tmax R s Состояние
почвы
12 20.03.19 280 (З) 10 км    10/8 1000 м средняя 
[Sc|Ac und]
+12.4 +7.7 73 +13  1015.4  0.3  711  273           
15 20.03.19 тихо ()   н/о    6/1 1000 м средняя, верхняя 
[Sc|As trans|Ci sp]
+10.1 +7.8 86 +10  1017.2  1.1  712  275    +13.7       
18 20.03.19 тихо ()   н/о    10/8 1000 м средняя 
[Sc|Ac und]
+9.9 +7.6 86 +10  1018  0.7  713  276    +13.7  0.3     
21 20.03.19 тихо ()   н/о    10/3 1000 м средняя, верхняя 
[Sc|Ac cuf|Ci ing]
+9 +7.6 91 +9  1018.3  -0.1  713  277           
00 21.03.19 150 (ЮВ) н/о    9/0 средняя, верхняя 
[Ac trans|Ci]
+7.5 +6.8 95 +8  1019.2  0.4  713  278           
03 21.03.19 тихо ()   10 км    9/3 1000 м средняя, верхняя 
[Sc|Ac trans|Cc]
+8.3 +6.5 88 +8  1020.1  1.1  714  278           
06 21.03.19 290 (З) 10 км    9/1 1000 м средняя, верхняя 
[Sc|Ac lent|Cc]
+14.3 +7 61 +15  1019.1  0.5  714  272  +6.6         
09 21.03.19 210 (ЮЗ) 10 км    8/4 1000 м средняя, верхняя 
[Sc|Ac cast|Ci fib]
+16.5 +6.1 50 +18  1017.7  -0.9  714  270           
12 21.03.19 340 (С) 10 км    8/3 1000 м средняя, верхняя 
[Sc|Ac cuf|Ci fib]
+16.2 +6.7 53 +18  1017.4  -0.3  713  270           
15 21.03.19 тихо ()   н/о    8/3 1000 м средняя, верхняя 
[Sc|Ac cuf|Ci fib]
+12.5 +7.6 72 +13  1018.9  0.5  714  274    +17.8       
18 21.03.19 тихо ()   н/о    4/0 средняя, верхняя 
[Ac lent|Ci fib]
+10 +8.4 90 +10  1019.8  0.3  714  276    +17.8       
21 21.03.19 150 (ЮВ) н/о    9/3 1000 м средняя, верхняя 
[Sc|Ac trans|Ci fib]
+8.6 +7.6 93 +10  1019.6  -0.5  714  277           
00 22.03.19 тихо ()   н/о    10/4 1000 м средняя 
[Sc|Ac lent]
+10.4 +8.5 88 +11  1019.6  0.4  714  276           
03 22.03.19 160 (Ю) 10 км    6/0 верхняя 
[Ci fib]
+10.5 +8 84 +12  1019.7  0.1  714  276           
06 22.03.19 050 (СВ) 31  10 км    9/8 1000 м средняя, верхняя 
[Cu med, cong|Ac lent|Cc]
+16.5 +7.3 54 +14  1017.3  -0.9  713  270  +8.4         
09 22.03.19 320 (СЗ) 10 км    10/3 1000 м средняя 
[Cu med, cong|Ac As]
+17.8 +6.2 47 +19  1014.5  -2.3  712  268           
12 22.03.19 280 (З) 10 км    10/3 1000 м средняя 
[Cu hum|Ac As]
+16.6 +6.7 52 +18  1013  -1.6  710  269           
15 22.03.19 210 (ЮЗ) н/о    4/0 верхняя 
[Ci fib]
+12.9 +7.8 71 +14  1014.4  0.4  711  272    +17.9       
18 22.03.19 130 (ЮВ) н/о    10/0 средняя, верхняя 
[Ac As|Ci fib]
+11.1 +8.6 85 +12  1015.4  0.6  711  274    +17.9       
21 22.03.19 110 (В) н/о    10/0 средняя, верхняя 
[Ac trans|Ci fib]
+9.5 +7.8 89 +11  1015.5  -0.2  711  275           
00 23.03.19 тихо ()   н/о    10/0 средняя 
[Ac As]
+10 +8.5 90 +10  1015.3  -0.1  711  275           
03 23.03.19 100 (В) 10 км    10/0 средняя 
[Ac As]
+11.2 +8.8 85 +13  1015  -0.1  711  273           
06 23.03.19 270 (З) 10 км    10/0 средняя 
[Ac As]
+14.2 +9.9 75 +17  1014.3  711  270  +9.3         
09 23.03.19 280 (З) 10 км    10/3 1000 м средняя, верхняя 
[Cu hum|Ac lent|Cs]
+17.1 +10 63 +20  1012.8  -0.7  710  267           
12 23.03.19 270 (З) 10 км    10/3 1000 м средняя, верхняя 
[Sc|Ac trans|Cs]
+15.6 +6.4 54 +15  1013.2  0.1  710  270           
Время (UTC), дата Ветер
(°,м/с) 
Видим.   Явления Облачность Т
(°С)
Тd
(°С)
f(%) Тe
(°С)
Pmin
(гПа)
dP
(гПа)
Po
(мм)
O2
(г/м3)
Тmin Tmax R s Состояние
почвы

Для получения пояснительной информации подведите курсор к названию столбца.

ПОГОДА в Фергане - архив

Всё, что Вы хотите узнать о погоде в Фергане - удобно и подробно!

Выберите нужную дату (начиная с 1 января 2018* года) и нажмите кнопку "Найти".
Будут отображены архивные сводки погоды по пункту Фергана, начиная с указанной даты.


Отображать данные в формате CSV (для использования в таблицах Excel)


Внимание! Наш архив погоды предназначен исключительно для личного некоммерческого использования в познавательных целях. Если Вам необходимы официальные справки о состоянии погоды (для производственных, юридических, коммерческих и т.п. целей), обращайтесь в органы Росгидромета.

*Примечание: данная дата относится к архиву по метеостанциям СССР (Россия, СНГ, Балтия).
Архив по метеостанциям Зарубежной Европы и Азии (кроме Китая) хранится 10 дней, по другим регионам земного шара (Китай, Африка, Америка, Австралия, Океания) - 1 день.

Фергана - район местоположения метеостанции


Название, широта, долгота, высота метеостанции:
Фергана 40.4°ш. 71.8°д. 605 м над ур. моря [Узбекистан]

Дополнительная информация

В oтличие oт бoльшинства пoгoдных сайтoв мы публикуем пoдрoбную метеoинфoрмацию в детальнoм прoфессиoнальнoм фoрмате.

Характеристики температуры и влажнoсти вoздуха измеряются на высoте 2 м в тени вдали oт зданий и деревьев.
Скoрoсть ветра измеряется на высoте 10 м (на урoвне рoста челoвека скoрoсть ветра ниже в 1.5-2 раза). Если метеoстанция нахoдится в гoрoде или в лесу, тo скoрoсть ветра занижена на 2-4 м/с пo сравнению с oткрытым местoм. Скoрoсть ветра над акватoриями крупных рек и oзёр, а также на вершинах хoлмoв на 2-5 м/с выше, чем в oбычных услoвиях.
Атмoсфернoе давление в разных тoчках местнoсти мoжет значительнo oтличаться oт давления на метеoстанции, в зависимoсти oт услoвий рельефа (при пoдъёме на 10 м давление пoнижается примернo на 1 мм рт.ст.).